This demonstration page uses our WeatherBlox Daily Observations layout. Learn more.

Left ArrowRight Arrow

Hourly Observations for June 21, 2020

Temp ( °F °C ) Dew Point ( °F °C ) Humidity (%) Winds ( mph kmh ) Pressure ( in mb ) Visibility ( mi km ) Precip ( " mm )
12:53 am 00:53 Clear 70 21.1 65 18.3 84 84 Calm 30.01 1016 10 16 0.00 0.00
1:53 am 01:53 Clear 70 21.1 64 17.8 82 82 Calm 29.99 1016 10 16 0.00 0.00
2:53 am 02:53 Clear 69 20.6 64 17.8 84 84 Calm 29.98 1015 10 16 0.00 0.00
3:53 am 03:53 Clear 67 19.4 64 17.8 91 91 Calm 29.98 1015 10 16 0.00 0.00
4:53 am 04:53 Clear 67 19.4 64 17.8 91 91 Calm 29.97 1015 10 16 0.00 0.00
5:53 am 05:53 Mostly Clear 67 19.4 63 17.2 87 87 Calm 29.98 1015 10 16 0.00 0.00
6:53 am 06:53 Cloudy 67 19.4 64 17.8 91 91 Calm 29.99 1016 8 13 0.00 0.00
7:53 am 07:53 Mostly Cloudy 69 20.6 64 17.8 84 84 Calm 30.02 1017 10 16 0.00 0.00
8:53 am 08:53 Sunny 75 23.9 67 19.4 76 76 Calm 30.02 1017 10 16 0.00 0.00
9:53 am 09:53 Sunny 81 27.2 67 19.4 62 62 SSW 5 7 30.02 1017 10 16 0.00 0.00
10:53 am 10:53 Sunny 84 28.9 66 18.9 55 55 VRB 3 6 30.02 1017 10 16 0.00 0.00
11:53 am 11:53 Mostly Cloudy 86 30 65 18.3 49 49 Calm 30.02 1017 10 16 0.00 0.00
12:53 pm 12:53 Partly Cloudy 88 31.1 64 17.8 45 45 Calm 30.00 1016 10 16 0.00 0.00
1:53 pm 13:53 Mostly Sunny 90 32.2 63 17.2 41 41 S 9 15 29.99 1016 10 16 0.00 0.00
2:53 pm 14:53 Sunny 91 32.8 62 16.7 38 38 SSW 8 13 29.96 1015 10 16 0.00 0.00
3:53 pm 15:53 Mostly Sunny 91 32.8 62 16.7 38 38 S 10 17 29.95 1014 10 16 0.00 0.00
4:53 pm 16:53 Mostly Cloudy 87 30.6 63 17.2 45 45 SW 8 13 29.95 1014 10 16 0.00 0.00
5:53 pm 17:53 Mostly Cloudy with Light Rain 76 24.4 65 18.3 69 69 W 15 24 30.00 1016 10 16 0.00 0.00
6:01 pm 18:01 Mostly Cloudy with Nearby Thunderstorms 76 24.4 65 18.3 69 69 SW 9 15 29.99 1016 10 16 0.00 0.00
6:17 pm 18:17 Mostly Cloudy with Thunderstorms 74 23.3 66 18.9 76 76 SSW 12 19 30.00 1016 10 16 0.00 0.00
6:49 pm 18:49 Mostly Cloudy with Light Rain 72 22 66 19 83 83 SSW 8 13 29.98 1015 10 16 0.02 0.51
6:53 pm 18:53 Mostly Cloudy with Light Rain 72 22.2 67 19.4 84 84 SSW 9 15 29.98 1015 10 16 0.02 0.51
7:53 pm 19:53 Sunny 71 21.7 67 19.4 87 87 VRB 3 6 29.98 1015 10 16 0.01 0.25
8:53 pm 20:53 Clear 71 21.7 67 19.4 87 87 S 6 9 29.99 1016 10 16 0.00 0.00
9:53 pm 21:53 Clear 71 21.7 67 19.4 87 87 VRB 3 6 30.00 1016 10 16 0.00 0.00
10:53 pm 22:53 Clear 71 21.7 67 19.4 87 87 Calm 30.00 1016 10 16 0.00 0.00
11:53 pm 23:53 Clear with Light Rain 70 21.1 67 19.4 90 90 Calm 30.01 1016 10 16 0.00 0.00

Powered by AerisWeather